Bodensee (Kressbronn): 6,7°C  -  Teich der Wetterzentrale Bad Schussenried: 6,1°C |  Schneehöhe Kreuzthal-Steinberg (930 m ü. NN): 8 cm   
01.04.2020Höhe
ü. NN
ZeitTemperatur (°C)Nieder-
schlag
Luft-
feuchte
Luft-
druck
Wind
StationaktuellMinimumMaximumaktuellMaximum
Aldingen654 m03:56-2,2-2,6 (07:35)-0,3 (16:02)0,0 l/m²74%1024,23,7 km/h (1 Bft) SW29,6 km/h (5 Bft) W (14:48)
Allmendingen541 m03:55-5,1-5,1 (07:35)-2,1 (15:10)0,0 l/m²84%1024,01,6 km/h (1 Bft) O-NO35,4 km/h (5 Bft) O (15:35)
Altshausen574 m03:55-2,4-2,5 (03:53)-1,1 (00:16)0,0 l/m²62%1021,76,4 km/h (2 Bft) N-NO8,0 km/h (2 Bft) N-NO (01:07)
Amstetten-Reutti663 m03:55-3,4-3,4 (05:15)-1,5 (16:55)0,0 l/m²81%1023,94,8 km/h (1 Bft) O48,3 km/h (6 Bft) W (15:55)
Amtzell-Grenis677 m03:55-2,9-3,1 (03:35)-1,4 (00:00)0,0 l/m²60%1023,66,4 km/h (2 Bft) W-SW6,4 km/h (2 Bft) W-SW (00:00)
Aulendorf570 m03:55-1,8-1,8 (03:49)-0,5 (00:00)0,0 l/m²68%1022,68,0 km/h (2 Bft) N11,3 km/h (2 Bft) NO (02:20)
Bad Krozingen233 m03:55-0,3-0,3 (07:30)3,7 (16:05)0,0 l/m²68%1023,61,7 km/h (1 Bft) S-SW38,1 km/h (5 Bft) N (17:05)
Bad Saulgau595 m03:55-3,7-3,7 (06:45)-1,9 (15:00)0,0 l/m²82%1022,40,0 km/h (0 Bft) SO25,7 km/h (4 Bft) S (11:35)
Bad Saulgau, Mannsgrab588 m03:52-4,3-4,3 (03:44)-1,7 (00:17)0,0 l/m²84%1024,80,0 km/h (0 Bft) N0,0 km/h (0 Bft) N (00:00)
Bad Saulgau-Lampertsweiler627 m03:55-1,4-1,4 (03:55)0,2 (00:00)0,0 l/m²71%1025,519,3 km/h (3 Bft) N-NW22,5 km/h (4 Bft) N-NW (01:15)
Bad Schussenried572 m03:55-3,1-3,1 (03:50)-1,1 (00:00)0,0 l/m²84%1021,96,4 km/h (2 Bft) NO9,7 km/h (2 Bft) NO (03:15)
Bergatreute615 m01:45-0,7-0,7 (00:45)0,0 (00:00)0,0 l/m²77%1023,512,9 km/h (3 Bft) NO16,1 km/h (3 Bft) O-NO (01:40)
Biberach (Riss), Boehringer533 m04:00-3,3-3,4 (04:00)-1,1 (00:30)0,0 l/m²83%1022,75,8 km/h (2 Bft) N-NW11,9 km/h (3 Bft) N (03:00)
Biberach (Riss), Realschule553 m03:55-2,8-2,8 (03:45)-0,3 (00:00)0,0 l/m²82%1024,58,0 km/h (2 Bft) N11,3 km/h (2 Bft) N-NO (03:35)
Burgrieden523 m03:55-2,7-2,7 (03:50)-0,4 (00:00)0,0 l/m²77%1023,70,0 km/h (0 Bft) O-NO4,8 km/h (1 Bft) O-NO (02:50)
Burgrieden-Hochstetten510 m03:50-3,2-3,2 (06:50)-0,9 (15:40)0,0 l/m²86%1024,13,2 km/h (1 Bft) NW25,7 km/h (4 Bft) NO (12:55)
Ebersbach579 m03:55-1,5-1,5 (03:55)-0,1 (00:00)0,0 l/m²77%1023,98,0 km/h (2 Bft) N16,1 km/h (3 Bft) NO (01:25)
Ebersbach-Boos605 m03:55-2,7-2,7 (03:25)-0,1 (00:00)0,0 l/m²83%1023,714,5 km/h (3 Bft) O-NO22,5 km/h (4 Bft) O (01:00)
Ebersbach-Menzenweiler661 m03:55-2,4-2,4 (03:40)-0,6 (00:00)0,0 l/m²82%1023,720,9 km/h (4 Bft) NO24,1 km/h (4 Bft) O-NO (01:05)
Ehingen535 m01:10-2,5-2,5 (01:10)-1,3 (00:05)0,0 l/m²70%1025,40,0 km/h (0 Bft) N-NO5,0 km/h (1 Bft) N-NO (00:15)
Erlenmoos645 m03:55-2,3-2,3 (03:10)-0,9 (00:00)0,0 l/m²84%1023,68,0 km/h (2 Bft) O-NO12,9 km/h (3 Bft) O-NO (01:35)
Ertingen569 m03:55-2,4-2,7 (02:50)-0,6 (00:00)0,0 l/m²82%1023,611,3 km/h (2 Bft) N12,9 km/h (3 Bft) N-NO (00:10)
Friedrichshafen405 m03:55-0,7-0,7 (06:45)0,9 (13:30)0,0 l/m²74%1023,38,0 km/h (2 Bft) N-NO27,4 km/h (4 Bft) NO (15:10)
Günzburg443 m03:55-3,1-3,1 (03:25)-1,1 (00:00)0,0 l/m²86%1021,70,0 km/h (0 Bft) NO0,0 km/h (0 Bft) NO (00:00)
Hochdorf-Appendorf537 m03:55-3,7-4,4 (03:40)-1,7 (00:15)0,0 l/m²63%1023,44,8 km/h (1 Bft) O-NO14,5 km/h (3 Bft) N-NW (03:20)
Höchsten802 m03:55-2,9-2,9 (03:45)-1,4 (00:00)0,0 l/m²78%1021,319,3 km/h (3 Bft) N25,7 km/h (4 Bft) NO (02:45)
Horgenzell618 m03:55-1,9-1,9 (03:45)-0,6 (00:05)0,0 l/m²76%1021,214,5 km/h (3 Bft) N-NO19,3 km/h (3 Bft) N-NO (00:50)
Hoßkirch632 m03:55-4,3-4,3 (03:35)-1,0 (00:15)0,0 l/m²84%1022,41,6 km/h (1 Bft) O-NO14,5 km/h (3 Bft) O-NO (00:20)
Isny, Am Dreifingerbach695 m03:55-1,9-2,9 (02:30)0,1 (01:00)0,0 l/m²74%1022,10,0 km/h (0 Bft) W14,5 km/h (3 Bft) O-NO (01:05)
Isny, Weidachweg706 m03:55-0,4-1,3 (01:25)0,3 (00:25)0,0 l/m²59%1024,56,4 km/h (2 Bft) S-SW12,9 km/h (3 Bft) W (00:10)
Kappel-Grafenhausen163 m03:501,41,4 (06:55)3,3 (14:55)0,0 l/m²63%1021,83,2 km/h (1 Bft) N-NO30,6 km/h (5 Bft) N-NO (16:55)
Kißlegg-Staibshof709 m03:55-2,5-2,5 (03:50)-0,9 (00:00)0,0 l/m²81%1023,38,0 km/h (2 Bft) NO14,5 km/h (3 Bft) O (01:50)
Kressbronn398 m03:56-0,4-0,4 (03:56)1,4 (00:00)0,0 l/m²69%1021,811,3 km/h (2 Bft) O-NO22,5 km/h (4 Bft) O-NO (00:54)
Kreuzthal-Steinberg-Alpe930 m03:50-4,5-4,6 (03:50)-2,5 (00:00)0,0 l/m²92%1023,01,1 km/h (1 Bft) W22,0 km/h (4 Bft) W-NW (00:10)
Kreuzthal-Steinberggipfel1040 m03:50-3,7-4,0 (02:20)-3,1 (00:10)-80%1023,013,3 km/h (3 Bft) O-NO37,1 km/h (5 Bft) O-SO (00:10)
Kristberg im Montafon (AT)1425 m03:55-5,6-5,9 (02:56)-5,3 (00:40)0,0 l/m²60%1026,36,8 km/h (2 Bft) SO10,1 km/h (2 Bft) NO (01:47)
Laupheim500 m03:55-2,7-2,8 (03:10)0,0 (00:00)0,0 l/m²80%1023,24,8 km/h (1 Bft) NO9,7 km/h (2 Bft) O-SO (00:20)
Leutkirch-Heggelbach670 m03:55-3,4-3,4 (03:55)-2,6 (00:30)0,0 l/m²83%1022,74,8 km/h (1 Bft) N8,0 km/h (2 Bft) N-NO (03:30)
Lindau-Insel420 m03:55-0,4-0,4 (07:25)1,8 (14:55)0,0 l/m²69%1022,20,0 km/h (0 Bft) O-NO29,0 km/h (5 Bft) NO (17:05)
Lindau-Stadt412 m03:55-1,1-1,1 (07:25)1,2 (14:55)0,0 l/m²73%1022,43,2 km/h (1 Bft) NO33,8 km/h (5 Bft) N-NO (15:40)
Maierhöfen im Allgäu733 m03:55-2,1-2,2 (03:10)-1,2 (01:35)0,0 l/m²72%1022,89,7 km/h (2 Bft) O25,7 km/h (4 Bft) O-SO (02:05)
Maselheim543 m03:55-4,1-4,1 (06:40)-2,3 (13:20)0,0 l/m²82%1024,00,0 km/h (0 Bft) S-SW24,1 km/h (4 Bft) O-NO (15:20)
Maselheim-Sulmingen548 m03:55-4,2-4,2 (06:40)-2,2 (15:15)0,0 l/m²85%1025,30,0 km/h (0 Bft) N20,9 km/h (4 Bft) N-NO (12:15)
Mietingen-Baltringen528 m03:55-3,7-4,1 (03:25)-1,3 (00:45)0,0 l/m²83%1025,50,0 km/h (0 Bft) O-NO4,8 km/h (1 Bft) N-NO (01:20)
Mindelheim-Apfeltrach620 m03:56-4,5-4,5 (03:50)-2,7 (00:00)0,0 l/m²86%1025,00,0 km/h (0 Bft) NO0,0 km/h (0 Bft) O-NO (00:00)
Mittelbiberach577 m03:56-3,1-3,1 (03:49)-1,0 (00:16)0,0 l/m²80%1024,71,6 km/h (1 Bft) NO11,2 km/h (2 Bft) NO (01:21)
Neresheim552 m03:00-4,8-4,8 (03:00)-2,0 (00:00)0,0 l/m²82%1023,40,0 km/h (0 Bft) O4,0 km/h (1 Bft) NO (01:00)
Neukirch570 m03:55-2,6-2,6 (05:25)-0,9 (14:35)0,0 l/m²79%1022,89,7 km/h (2 Bft) N-NO37,0 km/h (5 Bft) N-NO (11:55)
Ochsenhausen, Birkenstraße613 m03:55-4,3-4,3 (07:10)-2,2 (12:50)0,0 l/m²79%1024,10,0 km/h (0 Bft) SO3,2 km/h (1 Bft) S-SW (07:05)
Ochsenhausen, Unt. Wiesen575 m03:55-4,5-4,6 (03:50)-2,4 (00:00)0,0 l/m²86%1025,30,0 km/h (0 Bft) NO4,8 km/h (1 Bft) NO (00:00)
Opfenbach-Göritz561 m03:56-5,0-5,0 (03:49)-2,8 (00:00)0,0 l/m²79%1021,00,0 km/h (0 Bft) O-NO6,5 km/h (2 Bft) O-NO (00:18)
Ostrach619 m03:55-3,7-3,7 (03:45)-0,6 (00:00)0,0 l/m²86%1021,91,6 km/h (1 Bft) N-NO4,8 km/h (1 Bft) NO (00:00)
Ravensburg, Goethestraße428 m03:55-0,3-0,3 (03:40)1,3 (00:00)0,0 l/m²74%1022,49,7 km/h (2 Bft) O-NO14,5 km/h (3 Bft) O-NO (02:45)
Ravensburg-Wernsreute511 m03:55-1,9-1,9 (06:15)0,0 (15:50)0,0 l/m²78%1025,416,1 km/h (3 Bft) N35,4 km/h (5 Bft) N-NO (11:45)
Reichenbach an der Fils343 m03:55-1,5-1,5 (03:45)1,0 (00:00)0,0 l/m²75%1026,28,0 km/h (2 Bft) O-NO11,3 km/h (2 Bft) O (01:20)
Riedlingen530 m03:55-2,3-2,3 (03:50)-1,0 (00:00)0,0 l/m²79%1023,70,0 km/h (0 Bft) NO0,0 km/h (0 Bft) N (00:00)
Rißtissen489 m03:55-2,0-2,0 (03:55)-0,2 (00:00)0,0 l/m²83%1021,33,2 km/h (1 Bft) O-NO8,0 km/h (2 Bft) O-NO (03:30)
Rottweil-Hausen681 m03:58-3,6-3,7 (03:28)-1,9 (00:00)0,0 l/m²80%1024,11,4 km/h (1 Bft) N-NO6,5 km/h (2 Bft) NO (02:14)
Schemmerhofen520 m03:552,72,7 (00:00)2,7 (00:00)0,0 l/m²55%1022,60,0 km/h (0 Bft) NO0,0 km/h (0 Bft) NO (00:00)
Silbertal im Montafon (AT)884 m03:55-3,4-3,4 (03:37)-1,6 (00:01)0,0 l/m²84%1026,10,0 km/h (0 Bft) O-NO0,0 km/h (0 Bft) O-NO (00:00)
Tettnang466 m03:54-0,4-0,4 (03:21)1,0 (00:00)0,0 l/m²69%1022,613,0 km/h (3 Bft) O-SO16,2 km/h (3 Bft) O-SO (01:07)
Tuttlingen648 m03:51-3,3-3,5 (02:41)-2,1 (00:01)0,0 l/m²73%1024,40,0 km/h (0 Bft) N-NO5,2 km/h (1 Bft) W-SW (03:26)
Tuttlingen, Möhringer-Vorstadt711 m03:55-4,1-4,1 (07:10)-2,4 (16:05)0,0 l/m²81%1023,64,8 km/h (1 Bft) O-NO25,7 km/h (4 Bft) N-NW (12:35)
Ummendorf547 m03:55-2,7-2,9 (03:50)-0,7 (00:10)0,0 l/m²65%1024,80,0 km/h (0 Bft) O16,1 km/h (3 Bft) O (01:05)
Ummendorf-Fischbach558 m03:55-4,2-4,3 (03:55)-1,9 (01:25)0,0 l/m²69%1024,50,0 km/h (0 Bft) O0,0 km/h (0 Bft) O (00:00)
Waldburg707 m03:55-2,1-2,1 (03:30)-0,8 (00:00)0,0 l/m²76%1022,48,0 km/h (2 Bft) N19,3 km/h (3 Bft) N (02:35)
Waltenhofen im Allgäu720 m03:55-6,3-6,3 (03:55)-2,2 (01:05)0,0 l/m²86%1023,40,0 km/h (0 Bft) N-NW17,7 km/h (3 Bft) N-NW (11:50)
Wangen, Südring548 m03:55-2,3-2,3 (03:46)-0,3 (00:00)0,0 l/m²79%1022,43,2 km/h (1 Bft) NO13,0 km/h (3 Bft) NO (01:25)
Warthausen-Birkenhard581 m03:53-3,4-3,4 (03:48)-1,2 (00:00)0,0 l/m²83%1023,78,6 km/h (2 Bft) N-NO11,9 km/h (3 Bft) N-NO (02:49)
Winterlingen785 m03:45-4,8-4,8 (03:45)-2,8 (01:00)0,0 l/m²81%1023,21,8 km/h (1 Bft) N3,6 km/h (1 Bft) NO (00:55)

niederschlagsdatenbank | info | login - erfassung

Sollten Sie Interesse haben, an der Niederschlagsdatenbank teilzunehmen, finden Sie > hier < weitere Informationen.
Datum: . . Kalender
Anmerkung:0,0 = nicht messbarer Niederschlag
 -  = kein Niederschlag
 k  = kumulierter Niederschlag

< 05.12.201907.12.2019 >


Niederschlagswerte vom 06.12.2019    -    derzeit 112 Stationen

Die Niederschlagswerte des gewählten Tages lassen sich durch Klicken auf das Datum sortieren.
Die Angaben sind in l/m².

Station03.12.04.12.05.12.06.12.07.12.08.12.09.12.Bemerkung 06.12.
Aichstetten Ulmenstraße 7-------
Aichstetten-Nestbaum Nestbaum-------
Albbruck Furmisstr. 18---1,80,87,215,3
Nebel am Vormittag, am Nachmittag Sonne +6°C Nachts +3° und Regen
Regen Nieselregen Bodennebel
Allmendingen Querqueviller Ring 6---0,70,40,84,0
Regen
Amstetten-Reutti Gassenäcker 13---1,20,41,87,6
Regen
Aulendorf Steinenbacher Weg 33---1,5-0,22,0
Regen
Aulendorf-Blönried Heuweg 32-----1,4-
Bad Bellingen Rheinstraße 76-------
Bad Buchau Hanfweiher 11,5--1,0-1,02,0
Bad Saulgau Walserweg---0,5-0,03,0
Regen
Bad Saulgau-Hochberg Lampertsweiler Straße 12---1,0--2,0
Bad Schussenried Konradstraße-0,0-0,8-0,31,9
Regen Bodennebel
Bad Schussenried Lortzingstrasse---1,4--2,5
Bad Schussenried Klosterstraße---1,3--2,0
Regen
Bad Schussenried Theodor-Storm-Strasse---1,6--2,5
Regen Bodennebel
Bad Schussenried-Hopferbach Unterer Öschweg 16/1---1,5---
Regen
Bad Schussenried-Lufthütte Hauptgasse 17---1,5--2,0
Bad Schussenried-Sattenbeuren Ortsstraße 7---1,0--2,0
Regen
Bad Schussenried-Schwaigfurt Schwaigfurt 2---2,0--2,0
Bad Waldsee-Haisterkirch Zur Spitzenkapelle 1------3,5
-3,4/+3,9°C, einzelne Frühnebelfelder, darauf rasch überwiegend son [weiterlesen...]
Bodennebel
Bad Wurzach-Seibranz Kimpflerhof 2 ---1,3-1,55,5
Baienfurt Untere Bergstrasse 7-------
Balzheim Hinterm Liess 19---1,0-4,02,5
Berg-Kleintobel Kleintobel---1,20,11,05,0
Regen
Biberach Amriswilstrasse---1,0-0,20,8
Regen
Biberach Strölinweg---1,0-0,50,5
Regen
Biberach Erlenweg---1,0-0,80,8
Regen
Biberach Neue Heimat 5---3,0-1,01,5
Regen
Biberach Mittelbergstraße 9---1,0-1,01,0
Regen
Biberach Auf dem Lindele------6,0
Biberach-Bergerhausen Löcherstr.1---1,0-0,8-
Bierstetten Schloßbühl 6---1,00,3-2,0
Blaubeuren-Pappelau Sotzenhauserstr.7---1,00,50,54,0
Bühlertal Wolfinstraße 16---2,02,02,015,0
Regen
Dettingen a. d. Iller Schleifweg 4-------
Dornstadt-Tomerdingen Maienweg 9---1,5-0,06,9
Dürnau Dorfäckerweg 5---1,0-2,02,0
Regen
Eberhardzell Lilienweg---1,80,3-1,6
Ebersbach-Roßwälden Appenwiesen---1,40,73,55,6
Erst Sonne, am Abend wolken, in der Nacht Regen.

-7,5 bis 6,6 Grad
Ehingen Rosenstraße0,00,0-0,90,10,43,0
Regen
Ehingen Zanderstraße-------
Ehingen Schlaufenbühl---0,6-0,33,8
Regen
Ehingen Schillerstraße---0,8-0,42,8
Regen
Ehingen-Herbertshofen Tobelweg 9-------
Eislingen Albstraße 125---0,92,55,46,7
Regen
Erbach-Bach Hauptstraße 24---0,8--3,0
Erlenmoos Haldenweg 15---2,0-0,22,9
Regen
Füramoos Hungersberg 1----0,7--
Gutenzell Kleinser Berg 1---2,0-0,52,0
Gutenzell-Hürbel Bei der Sägmühle 1---1,5-2,02,0
Regen
Herbertingen Drosselweg---0,5-2,02,5
Bei Temperaturanstieg bis an den zweistelligen Bereich Sonne pur. Schw [weiterlesen...]
Regen
Herbertingen Hirschstrasse------5,0
Hochdorf-Schweinhausen Lindenweg 2---3,1--1,1
Hohentengen-Bremen Bremer Halde 4------3,0
Horgenzell-Ringgenweiler Ringgenweiler 620---2,0-3,76,2
Hüttisheim Ulmer Weg 2---0,5-0,02,8
Regen
Illerkirchberg Mahdauweg 20---1,2-0,23,5
Regen
Illerrieden-Wangen Am Muckenberg 12---1,5-0,53,5
Immenstaad Stockwiesen 10-------
Inzigkofen Butzenweg 1---0,1-1,85,3
Regen
Isny Am Dreifingerbach 39---1,01,01,612,0
Regen
Kirchberg Rosenstr. 7-----3,03,0
Kreuzthal-Steinberg-Alpe Im Kreuzbachthal 85---0,71,71,617,8
Regen
Langenau Wasserstr. 54-1---1,0-2,03,0
Nieselregen
Langenenslingen Schattenweiler Str. 18---0,3-1,13,2
Leutkirch Unterer Auenweg 250,00,00,00,9-1,04,4
Regen
Leutkirch Nachtigallenweg 28-----4,56,5
Leutkirch-Adrazhofen Bergstraße 20---2,51,02,06,0
Merklingen Millergasse 9-------
Mietingen Seerosenweg 10-------
Mietingen-Walpertshofen Bussenweg 31-------
Mittelbiberach-Reute Rindenmooser Straße 2---1,6-0,61,8
Regen
Moosburg Käserweg 5---1,2-0,04,0
Teils heiter, teils wolkig. Am späten Abend, Nacht, etwas Regen.
Regen
Münsingen-Rietheim In der Lise 20---0,20,22,68,8
Regen
Neresheim Alfred-Delp-Straße 8---1,11,12,66,7
Regen Bodennebel
Oberdischingen Normannenstraße 7-------
Ochsenhausen Ehrensberger Weg 5---0,81,00,02,0
Regen
Öpfingen Hauptstraße 99---1,20,10,12,8
Regen
Ostrach Uhlandweg---0,5-0,53,5
Regen
Pfaffenhofen-Kadeltshofen Mühlbachstraße 4---1,01,01,02,0
Pfullendorf Am Schweizersbild ------4,3
Rangendingen Donaustraße 19----1,54,01,0
Ravensburg Bleicherstraße---2,0-0,65,0
Ravensburg-Schmalegg St.-Magdalena-Ring 42---2,0-2,05,1
Ravensburg-Wernsreute Wernsreute 25---1,6-1,06,0
Regen
Ravensburg-Weststadt Karl-Erb-Ring 142---1,4-2,06,0
Regen
Regensburg Orleansstraße 3------4,9
Riedhausen Blütenweg 13---1,60,20,43,6
Temp. -3,0°C / +6,9°C, Windböen S-SW 32,2 km/h
Regen
Riedlingen Berliner Str. 41---0,2-1,02,7
Nieselregen
Riedlingen-Neufra Panoramaweg---0,5-2,02,0
Regen Nieselregen
Riedlingen-Neufra Riedlinger Strasse-----1,5-
+ 5,3 Grad, 87 % LF, klar, frische Meeresluft
Schelklingen-Gundershofen Schwarzer-Straße 14---0,50,5-8,5
Tiefstemp. am frühen Morgen minus 9,1°C. Bis Mittags viel Sonne. Geg [weiterlesen...]
Schemmerberg Drosselweg 9---1,0-2,01,5
Schwörstadt Schulstrasse 19----4,210,81,0
Seekirch Haldenberg 7------0,0
Sigmaringendorf Weingartenstraße 7-----1,23,2
Tuttlingen Möhringerstraße 11---0,30,13,89,0
Regen Nieselregen
Ulm Eberhardtstraße 75---0,70,00,22,8
Ummendorf Tulpenweg-0,0-0,7--1,0
Regen
Ummendorf Friedrich-Schiller-Str.----1,5-2,0
Bodennebel Nebelnässe
Uttenweiler-Ahlen Seekircher Straße 8---0,3--5,0
Regen
Vöhringen (Schwarzwald) Drosselweg 3-----11,05,0
Waldburg Kastanienweg11------8,0
Wangen-Bergerhöhe Berg 2----2,0-9,5
Warthausen An der Schloßhalde ---1,2-2,01,3
Regen
Warthausen Schwabenwiesen ---0,7-2,22,0
Regen
Warthausen-Barabein Barabein 20---2,0-3,01,8
WIND
Regen
Weingarten Laurastraße0,00,00,02,50,51,24,0
+ 4,,0 ° C um 6.30 Uhr, 962 hPa,
Regen Nieselregen
Weingarten Hoyerstraße-------
Weingarten Marienstraße---2,0-0,54,5
Regen
Wolfegg-Veesers Veesers 1-------
Wolpertswende Aulendorfer Str. 17---0,9-0,92,2
Regen

Stillgelegte Niederschlagsstationen    -    derzeit 49 Stationen

StationLetzte Meldung03.12.04.12.05.12.06.12.07.12.08.12.09.12.Bemerkung 06.12.
Allmannsweiler Eggatsweilerstr.2802.09.2014-------
Aulendorf-Rugetsweiler Erikaweg 325.07.2013-------
Aulendorf-Zollenreute Imterstraße 1209.02.2019-------
Bad Saulgau Willi-Burth-Straße19.09.2011-------
Bad Saulgau Eichendorffweg28.03.2013-------
Bad Saulgau Seewattenstraße 12815.01.2014-------
Bad Saulgau-Lampertsweiler Valentinstr. 2618.02.2015-------
Bad Schussenried-Steinhausen Drosselgasse 4/126.09.2012-------
Bad Waldsee-Michelwinnanden Michelberg 531.12.2014-------
Bad Waldsee-Osterhofen Hochwaldgasse 406.03.2015-------
Bad Waldsee-Steinach Hofraingasse 1510.11.2013-------
Bad Wurzach-Dietmanns Postweg 519.01.2019-------
Bad Wurzach-Haidgau Wengener Straße 507.10.2012-------
Bad Wurzach-Ziegelbach Ziegelbach-Greut 507.11.2014-------
Bergatreute Bolanden 113.02.2012-------
Betzenweiler Offinger Straße 505.01.2017-------
Burgrieden Am Nonnenberg 328.10.2013-------
Burgrieden-Rot Schmiedgasse 518.09.2013-------
Eberhardzell Schillerstraße05.07.2010-------
Ehingen Am Elzengraben17.06.2016-------
Gammertingen Schillerstraße 2216.01.2016-------
Griesingen Blumenstraße 906.10.2015-------
Günzburg Erlenbadweg 34 1/231.12.2010-------
Hoßkirch Kirchstraße 805.01.2018-------
Ingoldingen-Grodt Ingoldinger Weg 1919.11.2016-------
Kisslegg Kirchmoosstraße02.05.2011-------
Krauchenwies-Hausen Rosenrain 123.11.2013-------
Kressbronn Irisstraße 410.03.2010-------
Leutkirch-Ottmannshofen Spitalriedstraße 527.07.2012-------
Leutkirch-Rotis Rotis 5/208.05.2016-------
Leutkirch-Wuchzenhofen Untere Kirchstraße 18/119.09.2016-------
Mietingen Hangweg 1530.12.2017-------
Mössingen-Bästenhardt Weissdornweg 721.07.2014-------
Ostrach Heiligenberger Straße19.08.2013-------
Pfullendorf Ringstraße 18.03.2012-------
Ravensburg Olgastraße30.10.2016-------
Seltmans Amselweg 2209.04.2013-------
Stuttgart-Bad Cannstatt Beuthener Str. 6703.02.2013-------
Stuttgart-Möhringen Glashütter Weg 1023.04.2017-------
Stuttgart-Rohr Hirschsprung 307.11.2012-------
Talheim Im Schecken 2121.08.2016-------
Tannheim Eggmannstr. 42 22.10.2017-------
Tettnang-Ramsbach Jahnstr. 24/126.03.2011-------
Tuttlingen-Möhringen Belchenstraße01.01.2015-------
Ummendorf Bergstraße23.10.2017-------
Vogt Mühlwies 1822.05.2015-------
Wangen-Atzenberg Keplerweg 324.02.2019-------
Weingarten Bischof-Sproll-Straße30.06.2011-------
Wilhelmsdorf Riedhauser Straße 28.10.2012-------
Wilhelmsdorf Seefeld20.08.2013-------
Wurmlingen An der Steig 3014.10.2016-------
Die Niederschlagswerte des gewählten Tages lassen sich durch Klicken auf das Datum sortieren.
Die Angaben sind in l/m².

Wetterbeobachtungen Legende:

  • Regen
  • Nieselregen
  • Schneeregen
  • Schnee
  • Graupel
  • Eiskörner
  • Hagel
  • Bodennebel
  • Gewitter
  • Nebelnässe
  • Schneegriesel

Grafische Darstellung der Tagesniederschläge vom 06.12.2019

< 05.12.201907.12.2019 >Monats- und Jahresniederschlag


 
wetterstationen
wetterstationen
- derzeit 83 Stationen
niederschlagsdatenbank
wetterstationen
- kartographische Darstellung
niederschlagsdatenbank
niederschlagsstationen
- derzeit 112 Stationen
niederschlagsdatenbank
niederschlagsstationen
- kartographische Darstellung
 
  treffpunkt & service
--- Anzeigen --------------------------------
zugriffe:
insgesamt: 46.623.006
aktueller monat: 195
heute: 195
momentan online: 2
 
 
monatshöchstwert: 653.625
vorheriger monat: 364.213
gestern: 13.565
tageshöchstwert: 57.073
 
wetterwarte süd
 
konradstraße 3
info@wetterwarte-sued.com
roland roth
 
88427 bad schussenried